User: anonymous   Login
Location: Unspecified
(0.0000°N, 0.0000°E)
Time: 21:37:41
(UTC+00:00)
Language:

CAS-4A - Orbit

View from above orbital plane
View from above orbital plane
View from above satellite
View from above satellite

Ground track
Ground track

The orbit data is extracted from the following two-line orbital elements,

1 42761U 17034D   20184.50600404 +.00000105 +00000-0 +19817-4 0  9995
2 42761 043.0207 303.6414 0009891 128.6402 282.3281 15.09916865168246
Epoch (UTC): 02 July 2020 12:08:38
Eccentricity: 0.0009891
inclination: 43.0207°
perigee height: 529 km
apogee height: 543 km
right ascension of ascending node: 303.6414°
argument of perigee: 128.6402°
revolutions per day: 15.09916865
mean anomaly at epoch: 282.3281°
orbit number at epoch: 16824

The dashed part of the orbit path shows where the satellite is in the earth's shadow,  

DLR